Location: Galleywood
(51.7000°N, 0.4667°E)
Time: 02:33:07
(UTC+00:00)

Daily predictions for brighter satellites

Satellite Brightness Start Highest point End
(mag) Time Altitude Azimuth Time Altitude Azimuth Time Altitude Azimuth
Cosmos 1461 3.0 00:01:00 10° NW 00:05:04 57° SW 00:06:31 36° S
Cosmos 1553 Rocket 4.0 00:03:21 27° S 00:06:50 74° E 00:13:03 10° NNE
Cosmos 1867 3.9 00:05:01 30° S 00:07:28 51° ESE 00:12:45 10° NE
Cosmos 2221 Rocket 3.6 00:06:47 34° S 00:08:37 71° E 00:13:02 10° NNE
Cosmos 1674 Rocket 4.0 00:06:55 30° SSE 00:08:42 50° E 00:12:53 10° NNE
USA 306 4.5 00:11:52 19° SE 00:11:52 19° SE 00:14:30 10° E
Cosmos 1238 Rocket 2.0 00:08:37 10° N 00:11:35 87° E 00:12:06 58° SSE
Cosmos 1674 2.6 00:10:51 41° S 00:12:03 79° E 00:15:49 10° NNE
ATLAS CENTAUR R/B 2.7 00:08:47 10° WNW 00:12:56 29° WSW 00:13:59 26° SW
SL-19 R/B 3.9 00:17:33 48° SW 00:17:58 53° WSW 00:20:51 10° NNW
SL-16 R/B 4.5 00:17:49 10° ESE 00:19:36 11° E 00:21:22 10° ENE
Cosmos 468 4.4 00:16:16 10° NNW 00:21:31 80° WSW 00:24:27 27° SSE
ATLAS 5 CENTAUR R/B 3.4 00:06:08 10° NW 00:21:35 68° SW 00:24:40 23° SSE
CZ-4C R/B 3.1 00:14:45 10° NW 00:21:46 60° SW 00:27:52 19° SSE
Cosmos 2322 Rocket 3.7 00:17:00 10° WSW 00:22:02 33° NW 00:27:06 10° NNE
Cosmos 2333 Rocket 2.5 00:19:42 19° SW 00:23:45 66° NW 00:29:26 10° NNE
Cosmos 1378 Rocket 3.7 00:22:19 32° S 00:24:15 68° E 00:28:41 10° NNE
Cosmos 2322 3.7 00:20:47 24° SW 00:24:24 83° WNW 00:30:11 10° NNE
Cosmos 1844 Rocket 4.4 00:21:04 10° WNW 00:24:30 17° W 00:26:32 14° WSW
USA 215 3.3 00:20:29 10° ENE 00:27:04 85° NNW 00:33:38 10° WSW
NOSS 0 Rocket 4.3 00:29:23 26° S 00:32:47 52° ESE 00:38:49 10° NE
PSLV R/B 3.7 00:28:29 10° N 00:32:51 74° WNW 00:35:01 30° SSW
Meteor 2-10 Rocket 4.2 00:31:20 10° N 00:36:59 58° ENE 00:41:17 16° SSE
Cosmos 2151 Rocket 4.1 00:34:53 10° NNW 00:39:06 46° W 00:40:53 29° SSW
Cosmos 1745 Rocket 4.0 00:34:31 10° NNW 00:40:47 75° W 00:44:34 25° S
Cosmos 839 Rocket 4.1 00:35:58 10° NW 00:42:14 74° SW 00:49:12 11° SSE
Okean 2 Rocket 3.9 00:39:11 10° NNW 00:43:23 38° W 00:45:14 26° SW
Okean 2 4.0 00:42:13 27° SW 00:44:04 45° WNW 00:48:01 10° N
ADEOS Rocket 3.9 00:42:18 21° SW 00:45:07 31° W 00:50:25 10° NNW
USA 308 3.9 00:44:47 26° SSE 00:45:21 27° SE 00:48:56 10° E
Cosmos 2219 Rocket 2.6 00:42:56 18° SW 00:47:01 58° NW 00:52:34 10° NNE
Meteor 2-12 Rocket 4.4 00:42:17 10° NNW 00:48:24 87° W 00:52:26 22° S
Meteor 1-16 Rocket 4.5 00:42:44 10° NNW 00:48:36 62° W 00:52:02 25° S
Cosmos 1707 4.4 00:50:02 17° WSW 00:51:59 25° WNW 00:55:15 10° NNW
GP-B 3.3 00:51:07 10° N 00:55:33 64° E 00:58:07 24° SSE
CZ-2D R/B 3.4 00:53:45 10° NNE 00:58:33 32° E 01:02:28 14° SSE
Cosmos 1300 2.6 00:55:56 10° NNW 00:59:45 81° W 01:01:27 31° S
Lacrosse 5 3.5 00:58:31 17° SSE 01:00:17 20° SE 01:03:55 10° E
ASTEX 1 4.3 00:57:45 10° N 01:02:17 39° WNW 01:05:07 20° SW
SL-14 R/B 3.2 01:02:27 32° SSW 01:04:10 78° W 01:08:03 10° N
USA 267 4.1 01:02:14 23° SSW 01:04:49 29° SW 01:10:25 10° WNW
USA 305 3.3 01:07:08 30° SSW 01:08:38 43° SE 01:12:36 10° ENE
Cosmos 371 Rocket 3.3 01:06:03 26° SSW 01:08:48 90° ESE 01:13:42 10° NNE
USA 229 DEB 4.2 01:02:04 10° NW 01:09:02 48° WSW 01:15:06 16° S
USA 229 4.2 01:02:10 10° NW 01:09:09 48° WSW 01:15:15 15° S
Cosmos 2150 Rocket 3.9 01:06:08 25° SSW 01:09:14 87° WNW 01:14:25 10° NNE
Cosmos 2237 Rocket 2.2 01:11:28 24° SSW 01:15:03 75° ESE 01:20:47 10° NNE
COSMOS 2428 3.3 01:12:17 16° WSW 01:16:46 51° NW 01:22:19 10° NNE
Cosmos 1437 Rocket 3.9 01:14:51 10° NNW 01:18:05 28° W 01:19:16 23° SW
Cosmos 405 Rocket 3.7 01:18:03 22° WSW 01:19:51 34° WNW 01:23:22 10° N
Cosmos 304 Rocket 3.8 01:17:17 25° SSW 01:20:08 75° ESE 01:24:58 10° NNE
SL-16 R/B 2.8 01:15:30 10° SSE 01:21:39 69° ENE 01:27:53 10° NNW
Okean 1 Rocket 4.0 01:18:05 10° NNW 01:22:04 33° W 01:24:05 22° SW
Lacrosse 5 rocket 3.3 01:21:54 12° SE 01:23:09 14° SE 01:25:16 10° E
Cosmos 1125 Rocket 3.6 01:20:01 22° SW 01:23:24 68° WNW 01:28:36 10° NNE
Cosmos 1953 3.5 01:21:24 10° NNW 01:24:53 28° W 01:26:26 22° SW
SME Rocket 3.3 01:24:34 22° S 01:27:10 68° WSW 01:32:32 10° NNW
Cosmos 2074 Rocket 4.4 01:20:56 10° N 01:27:13 65° ENE 01:33:28 10° SSE
Cosmos 2360 Rocket 4.3 01:23:24 10° W 01:27:42 22° NW 01:32:01 10° NNE
Resurs 1-4 Rocket 2.6 01:22:46 10° NNE 01:27:56 54° E 01:31:57 17° S
Cosmos 2297 4.0 01:25:59 10° NNW 01:31:46 73° ENE 01:37:30 10° SE
Cosmos 1943 Rocket 2.2 01:26:05 10° NNW 01:31:49 87° ENE 01:37:30 10° SSE
USA 290 4.4 01:32:42 12° W 01:34:48 20° NW 01:37:16 10° N
Cosmos 1709 Rocket 4.3 01:29:17 10° NNW 01:35:10 49° W 01:39:17 19° SSW
MOZ.5/SAFIR/RUBIN 5/SL-8 4.2 01:34:00 22° SSW 01:36:47 47° W 01:41:24 10° NNW
Cosmos 1626 4.3 01:36:40 11° WSW 01:38:46 16° WNW 01:41:06 10° NNW
Cosmos 2315 Rocket 4.2 01:35:34 19° SSW 01:40:12 67° WNW 01:46:35 10° N
Cosmos 2184 Rocket 4.1 01:35:50 10° N 01:42:09 78° E 01:48:21 10° SSE
Cosmos 2278 Rocket 3.3 01:37:55 10° NW 01:42:37 27° WSW 01:45:23 19° SW
EO 1 Delta rocket 4.2 01:38:06 10° N 01:42:37 55° WNW 01:46:02 19° SW
ADEOS II 3.1 01:38:49 10° NNE 01:43:48 41° E 01:48:40 10° SSE
IDEFIX/ARIANE 42P 3.8 01:39:47 10° NNE 01:44:39 36° E 01:49:29 10° SSE
USA 306 2.8 01:47:34 18° SW 01:50:33 69° SSE 01:54:42 10° ENE
Cosmos 2084 Rocket 3.5 01:49:15 22° SSW 01:51:27 51° SE 01:55:10 10° NE
Thor Agena Rocket 3.9 01:46:58 10° N 01:52:11 60° WNW 01:56:09 17° SW
USA 307 2.9 01:51:04 18° SW 01:54:01 66° SSE 01:58:12 10° ENE
NPP 3.8 01:50:35 10° NNE 01:56:01 75° ESE 02:00:36 15° S
ERBS 2.0 01:54:54 24° SW 01:56:34 69° SE 01:59:37 10° ENE
Cosmos 2369 Rocket 2.8 01:51:29 10° NNW 01:57:03 61° NE 02:02:34 10° SE
Gblst 52 Del rocket 4.2 01:51:57 10° W 01:57:52 89° S 02:03:24 10° E
USA-17 4.5 01:55:11 10° NW 01:58:23 85° NE 02:02:22 10° SE
Cosmos 1455 Rocket 3.8 01:56:17 10° NNW 02:00:25 37° W 02:03:14 18° SSW
Cosmos 614 Rocket 4.0 01:55:35 10° NNW 02:00:49 86° ENE 02:06:02 10° SSE
Cosmos 2228 4.1 01:56:47 10° N 02:01:01 45° ENE 02:05:11 10° SSE
CZ-4 R/B 3.8 01:56:20 10° NNE 02:01:01 84° WNW 02:04:41 16° SSW
EO 1 Del DPAF 4.3 01:58:48 10° NNE 02:02:05 36° E 02:05:16 10° SSE
SL-16 R/B 2.5 01:58:00 16° SSW 02:02:34 63° ESE 02:08:12 10° NE
Cosmos 2251 Rocket 4.1 01:57:33 10° NNW 02:02:46 60° ENE 02:07:59 10° SE
Cosmos 1656 Rocket 4.3 02:01:05 10° NNW 02:06:27 57° NE 02:11:47 10° SE
Cosmos 1980 4.3 02:02:27 13° SW 02:07:16 50° NW 02:12:48 10° NNE
Meteor 1-28 Rocket 3.2 02:03:54 10° SSE 02:07:38 83° ENE 02:11:23 10° NNW
Cosmos 2333 Rocket 4.3 02:05:02 10° WNW 02:09:09 20° NNW 02:13:18 10° NNE
CZ-4C R/B 4.4 02:04:53 10° WNW 02:09:26 17° WSW 02:12:59 13° SW
USA 215 3.9 02:03:28 10° ENE 02:09:52 58° N 02:16:15 10° W
COSMOS 2455 3.7 02:04:48 12° S 02:10:04 42° ESE 02:15:42 10° NE
Cosmos 332 Rocket 4.2 02:07:03 15° SW 02:10:48 52° WNW 02:15:30 10° NNE
NOSS 3 (A) 3.4 02:10:22 37° WSW 02:10:49 60° NW 02:12:37 10° NE
Cosmos 1536 Rocket 3.8 02:08:03 12° S 02:12:08 66° E 02:16:31 10° NNE
Cosmos 1975 Rocket 4.0 02:16:47 15° SW 02:20:03 35° WNW 02:24:12 10° N
Nadezhda 1 Rocket 4.2 02:15:20 10° S 02:21:41 80° E 02:27:59 10° NNE
Meteor 1-24 Rocket 3.9 02:17:03 14° SSW 02:21:50 61° WNW 02:27:14 10° N
MSX 4.4 02:16:09 10° NNE 02:21:51 56° E 02:27:31 10° S
UNK 4.1 02:19:09 11° S 02:23:22 48° W 02:27:52 10° NNW
Cosmos 1455 2.6 02:20:46 10° NNW 02:24:18 43° W 02:27:22 13° SSW
USA 308 2.8 02:20:31 10° WSW 02:24:38 87° SSE 02:28:51 10° ENE
Cosmos 1025 Rocket 3.9 02:23:55 14° SW 02:27:15 36° WNW 02:31:14 10° N
MOS 1 Rocket 3.4 02:23:22 10° S 02:27:25 49° W 02:31:39 10° NNW
Cosmos 1271 Rocket 2.7 02:24:21 10° NNW 02:28:09 71° W 02:31:59 10° S
Cosmos 2219 Rocket 4.4 02:28:26 10° WNW 02:32:14 18° NNW 02:36:02 10° NNE
Cosmos 1606 Rocket 4.1 02:27:50 10° N 02:32:15 62° ENE 02:36:36 10° SSE
CZ-2D R/B 2.7 02:33:37 10° N 02:38:47 47° WNW 02:43:47 10° SW
Lacrosse 5 2.0 02:37:42 11° SW 02:42:36 73° SE 02:47:42 10° ENE
Helios 1B rocket 4.0 02:39:19 10° NNE 02:42:58 32° E 02:46:37 10° SSE
Cosmos 2341 Rocket 4.2 02:38:31 10° N 02:44:57 81° E 02:51:22 10° SSE
USA 305 3.0 02:43:55 10° W 02:48:06 75° NNW 02:52:17 10° ENE
Cosmos 2154 Rocket 4.3 02:42:12 10° NNW 02:48:20 52° W 02:54:24 10° SSW
Meteor 2-1 Rocket 4.4 02:43:42 10° NNW 02:49:33 88° ENE 02:55:13 10° SSE
Cosmos 407 Rocket 3.7 02:45:23 10° NNW 02:50:46 82° ENE 02:56:03 10° SSE
SL-8 Rocket 4.3 02:45:20 10° N 02:51:42 77° ENE 02:58:01 10° SSE
SAR-Lupe-2 4.5 02:51:38 10° N 02:54:57 35° WNW 02:58:14 10° SW
AQUA 4.4 02:51:16 10° N 02:55:48 45° WNW 03:00:19 10° SW
Cosmos 1943 4.0 02:52:11 10° S 02:57:38 49° ESE 03:03:06 10° NE
Cosmos 1328 4.4 02:53:55 10° S 02:57:48 58° E 03:01:44 10° NNE
Helios 1A 3.7 02:54:18 10° SSW 02:58:08 34° W 03:02:02 10° NNW
Genesis I 3.2 02:54:16 10° NW 02:58:22 83° SW 03:02:23 10° SE
Cosmos 2237 Rocket 3.7 02:54:49 10° W 02:59:42 28° NW 03:04:38 10° NNE
Lacrosse 5 rocket 1.4 02:57:35 10° SW 03:01:28 68° SE 03:05:37 10° ENE
Cosmos 1140 Rocket 3.5 02:56:26 10° NNW 03:01:43 80° WSW 03:06:57 10° SSE
ATLAS 2AS CENTAUR R/B 4.4 02:57:19 10° NW 03:04:11 38° NNE 03:10:37 10° E
SL-16 R/B 3.6 03:00:40 10° SSW 03:05:47 27° W 03:10:58 10° NW
Resurs 1-4 Rocket 3.3 03:03:02 10° N 03:07:31 29° WNW 03:11:59 10° WSW
NOSS 3-4 (A) 4.4 03:02:22 10° NW 03:09:02 66° NE 03:16:37 10° ESE
NOSS 3-4 (C) 4.4 03:02:26 10° NW 03:09:06 66° NE 03:16:39 10° ESE
Lacrosse 4 Rocket 4.1 03:08:19 10° SE 03:10:02 12° ESE 03:11:44 10° E
Cosmos 1892 Rocket 4.0 03:07:11 10° S 03:11:36 66° E 03:16:04 10° NNE
